Epoch 2013 May 28.0 TT = JDT 2456440.5 T 2013 May 20.29758 TT MPCW q 5.8999043 (2000.0) P Q z -0.0003255 Peri. 118.61456 +0.53547247 -0.22396544 +/-0.0000001 Node 93.43035 -0.69559918 -0.66377836 e 1.0019207 Incl. 125.33578 +0.47896869 -0.71360897 From 8092 observations 2010 Sept. 21-2015 July 19, mean residual 0".5.
m1 = -2.0 + 5 log d + 15.0 log r